QPF
0.05 0.06 0.05 0.04 0.02 0.01 0.01 0.01 0.01 0.01 0.02 0.02 0.01 0.02 0.02 0.02 0.01 0.02 0.02 0.02 0.03 0.03 0.04 0.04 0.03 0.02 0.02 0.02 0.02 0.02 0.02 0.01 0.01 0.00 0.01 0.01 0.01 0.01 0.01 0.01 0.01 0.01 0.01
0.05 0.05 0.05 0.04 0.03 0.02 0.01 0.01 0.00 0.01 0.01 0.01 0.01 0.01 0.01 0.02 0.01 0.02 0.02 0.02 0.03 0.02 0.02 0.05 0.05 0.05 0.03 0.03 0.03 0.03 0.02 0.02 0.01 0.01 0.01 0.01 0.01 0.01 0.00 0.00 0.01 0.00 0.01
0.04 0.05 0.05 0.05 0.04 0.03 0.02 0.01 0.01 0.01 0.01 0.01 0.01 0.01 0.01 0.01 0.01 0.02 0.02 0.02 0.02 0.02 0.01 0.03 0.06 0.06 0.05 0.04 0.04 0.03 0.02 0.01 0.01 0.01 0.01 0.00 0.00 0.00 0.01 0.01 0.01 0.01 0.01
0.03 0.04 0.05 0.05 0.05 0.07 0.06 0.03 0.02 0.02 0.02 0.02 0.02 0.01 0.01 0.01 0.01 0.02 0.02 0.01 0.02 0.02 0.01 0.02 0.04 0.06 0.06 0.05 0.04 0.03 0.02 0.01 0.00 0.00 0.00 0.00 0.01 0.01 0.01 0.01 0.02 0.02 0.02
0.03 0.03 0.05 0.05 0.05 0.06 0.11 0.08 0.05 0.03 0.02 0.02 0.03 0.02 0.02 0.01 0.01 0.01 0.01 0.01 0.02 0.02 0.02 0.02 0.02 0.03 0.03 0.03 0.03 0.03 0.03 0.02 0.01 0.01 0.01 0.00 0.01 0.01 0.01 0.02 0.02 0.02 0.02
0.05 0.04 0.05 0.05 0.06 0.06 0.08 0.09 0.06 0.05 0.04 0.03 0.02 0.02 0.02 0.02 0.01 0.01 0.01 0.01 0.02 0.02 0.02 0.02 0.02 0.02 0.02 0.02 0.02 0.03 0.04 0.04 0.02 0.02 0.01 0.01 0.01 0.01 0.01 0.01 0.01 0.01 0.02
0.05 0.04 0.05 0.05 0.06 0.05 0.06 0.07 0.07 0.05 0.03 0.02 0.02 0.02 0.02 0.02 0.02 0.02 0.01 0.01 0.01 0.02 0.02 0.02 0.01 0.01 0.01 0.01 0.01 0.02 0.02 0.03 0.03 0.02 0.02 0.02 0.02 0.02 0.01 0.01 0.01 0.01 0.01
0.02 0.02 0.03 0.03 0.05 0.05 0.05 0.05 0.06 0.05 0.03 0.01 0.02 0.03 0.03 0.03 0.03 0.03 0.02 0.02 0.02 0.01 0.01 0.01 0.00 0.00 0.00 0.00 0.01 0.01 0.02 0.03 0.03 0.03 0.03 0.03 0.02 0.02 0.02 0.01 0.01 0.01 0.02
0.02 0.01 0.01 0.02 0.03 0.04 0.04 0.04 0.05 0.05 0.04 0.02 0.02 0.04 0.05 0.04 0.03 0.03 0.03 0.03 0.03 0.02 0.02 0.01 0.01 0.00 0.00 0.00 0.00 0.00 0.01 0.02 0.03 0.04 0.04 0.03 0.03 0.03 0.02 0.02 0.02 0.02 0.02
0.02 0.01 0.01 0.02 0.02 0.03 0.02 0.02 0.02 0.03 0.04 0.04 0.03 0.03 0.04 0.05 0.04 0.04 0.03 0.03 0.03 0.03 0.03 0.02 0.01 0.01 0.01 0.01 0.00 0.00 0.00 0.01 0.02 0.03 0.03 0.03 0.03 0.03 0.04 0.03 0.02 0.01 0.01
0.02 0.02 0.02 0.02 0.03 0.02 0.02 0.01 0.01 0.01 0.03 0.03 0.02 0.02 0.03 0.02 0.02 0.03 0.04 0.05 0.05 0.03 0.03 0.02 0.02 0.02 0.01 0.01 0.01 0.00 0.01 0.01 0.02 0.02 0.02 0.02 0.04 0.06 0.05 0.03 0.03 0.03 0.02
0.02 0.01 0.02 0.02 0.03 0.04 0.03 0.01 0.01 0.01 0.01 0.02 0.02 0.02 0.02 0.03 0.02 0.02 0.03 0.04 0.06 0.06 0.04 0.03 0.02 0.02 0.01 0.01 0.01 0.01 0.01 0.01 0.02 0.02 0.03 0.02 0.03 0.03 0.03 0.03 0.03 0.03 0.04
0.02 0.01 0.01 0.01 0.01 0.02 0.03 0.03 0.02 0.01 0.01 0.01 0.01 0.01 0.02 0.02 0.02 0.03 0.03 0.03 0.03 0.05 0.06 0.04 0.03 0.02 0.02 0.01 0.01 0.02 0.02 0.03 0.04 0.06 0.05 0.03 0.03 0.02 0.02 0.02 0.02 0.03 0.04
0.01 0.01 0.01 0.01 0.01 0.01 0.01 0.01 0.02 0.02 0.01 0.01 0.01 0.01 0.01 0.01 0.01 0.02 0.02 0.02 0.03 0.03 0.03 0.03 0.02 0.02 0.02 0.01 0.01 0.02 0.01 0.02 0.03 0.04 0.04 0.03 0.02 0.01 0.01 0.01 0.02 0.02 0.03
0.02 0.02 0.01 0.01 0.01 0.01 0.01 0.01 0.01 0.01 0.01 0.01 0.01 0.01 0.01 0.01 0.02 0.01 0.01 0.02 0.02 0.02 0.02 0.02 0.02 0.02 0.02 0.01 0.01 0.01 0.01 0.02 0.02 0.03 0.03 0.02 0.01 0.01 0.00 0.00 0.00 0.01 0.01
0.01 0.02 0.02 0.01 0.01 0.01 0.01 0.01 0.01 0.01 0.01 0.01 0.01 0.01 0.01 0.01 0.01 0.02 0.02 0.01 0.01 0.01 0.01 0.01 0.01 0.01 0.01 0.01 0.01 0.01 0.01 0.02 0.02 0.02 0.02 0.01 0.01 0.01 0.00 0.00 0.00 0.00 0.00
0.01 0.01 0.01 0.01 0.01 0.01 0.01 0.01 0.01 0.01 0.02 0.02 0.01 0.01 0.01 0.01 0.02 0.02 0.02 0.02 0.02 0.02 0.01 0.01 0.01 0.01 0.01 0.01 0.01 0.01 0.01 0.01 0.01 0.02 0.01 0.01 0.01 0.00 0.01 0.01 0.01 0.01 0.01
0.02 0.02 0.01 0.01 0.01 0.01 0.01 0.01 0.01 0.01 0.01 0.01 0.02 0.02 0.01 0.01 0.02 0.02 0.02 0.02 0.02 0.02 0.02 0.02 0.01 0.01 0.01 0.01 0.01 0.01 0.01 0.00 0.00 0.01 0.01 0.00 0.01 0.00 0.00 0.01 0.01 0.01 0.00
0.02 0.02 0.02 0.01 0.01 0.01 0.01 0.02 0.02 0.02 0.01 0.01 0.01 0.01 0.02 0.02 0.02 0.02 0.02 0.02 0.02 0.02 0.02 0.02 0.02 0.02 0.01 0.01 0.01 0.01 0.00 0.00 0.00 0.01 0.01 0.01 0.01 0.01 0.01 0.01 0.00 0.00 0.00
0.02 0.01 0.01 0.01 0.01 0.01 0.01 0.01 0.01 0.02 0.02 0.02 0.02 0.02 0.02 0.02 0.02 0.02 0.02 0.02 0.02 0.02 0.02 0.02 0.02 0.01 0.01 0.01 0.01 0.01 0.01 0.01 0.01 0.01 0.01 0.01 0.01 0.01 0.01 0.01 0.01 0.01 0.01
0.02 0.02 0.01 0.01 0.01 0.01 0.01 0.01 0.02 0.02 0.02 0.03 0.03 0.03 0.02 0.02 0.02 0.02 0.02 0.02 0.02 0.02 0.01 0.01 0.02 0.02 0.02 0.01 0.01 0.01 0.01 0.01 0.01 0.00 0.00 0.00 0.00 0.00 0.00 0.00 0.00 0.00 0.00
0.03 0.02 0.01 0.01 0.00 0.00 0.01 0.01 0.01 0.02 0.02 0.02 0.02 0.02 0.03 0.03 0.02 0.02 0.02 0.02 0.01 0.01 0.01 0.01 0.01 0.02 0.02 0.02 0.02 0.01 0.01 0.01 0.01 0.00 0.00 0.00 0.00 0.00 0.00 0.00 0.00 0.00 0.00
0.03 0.02 0.01 0.01 0.01 0.00 0.01 0.01 0.01 0.01 0.02 0.02 0.02 0.02 0.02 0.02 0.02 0.02 0.02 0.02 0.02 0.02 0.01 0.01 0.02 0.02 0.02 0.02 0.03 0.02 0.02 0.01 0.01 0.01 0.00 0.00 0.00 0.00 0.00 0.00 0.00 0.00 0.00
0.01 0.02 0.01 0.01 0.01 0.01 0.01 0.01 0.01 0.01 0.01 0.01 0.02 0.02 0.01 0.01 0.02 0.02 0.02 0.02 0.02 0.02 0.02 0.01 0.01 0.02 0.02 0.02 0.03 0.03 0.03 0.02 0.01 0.01 0.00 0.00 0.00 0.00 0.00 0.00 0.00 0.00 0.00
0.01 0.01 0.01 0.01 0.01 0.01 0.01 0.01 0.01 0.01 0.01 0.01 0.01 0.01 0.01 0.01 0.01 0.01 0.01 0.01 0.02 0.02 0.02 0.02 0.02 0.02 0.02 0.03 0.03 0.02 0.02 0.03 0.02 0.01 0.01 0.00 0.00 0.00 0.00 0.00 0.00 0.00 0.00
0.01 0.01 0.01 0.01 0.01 0.01 0.01 0.01 0.01 0.01 0.01 0.01 0.01 0.01 0.01 0.01 0.01 0.01 0.01 0.01 0.01 0.01 0.01 0.01 0.01 0.02 0.02 0.02 0.02 0.02 0.02 0.02 0.03 0.02 0.01 0.00 0.00 0.00 0.00 0.00 0.00 0.00 0.00
MSLP
1017.95 1018.57 1019.21 1019.86 1020.49 1021.06 1021.56 1021.96 1022.27 1022.51 1022.71 1022.90 1023.12 1023.36 1023.66 1023.99 1024.34 1024.69 1025.01 1025.29 1025.53 1025.73 1025.90 1026.07 1026.24 1026.43 1026.63 1026.83 1027.03 1027.21 1027.37 1027.49 1027.60 1027.68 1027.76 1027.85 1027.96 1028.07 1028.18 1028.28 1028.35 1028.38 1028.36
1017.72 1018.33 1018.99 1019.67 1020.35 1020.98 1021.55 1022.03 1022.42 1022.73 1023.00 1023.24 1023.49 1023.77 1024.08 1024.42 1024.76 1025.08 1025.37 1025.62 1025.83 1026.00 1026.17 1026.33 1026.52 1026.75 1026.99 1027.26 1027.52 1027.75 1027.96 1028.12 1028.23 1028.32 1028.39 1028.46 1028.54 1028.63 1028.72 1028.81 1028.88 1028.92 1028.91
1017.57 1018.18 1018.85 1019.56 1020.27 1020.97 1021.60 1022.16 1022.63 1023.02 1023.36 1023.67 1023.97 1024.29 1024.62 1024.96 1025.29 1025.59 1025.84 1026.05 1026.21 1026.35 1026.48 1026.64 1026.83 1027.07 1027.36 1027.66 1027.97 1028.26 1028.51 1028.71 1028.85 1028.95 1029.01 1029.06 1029.12 1029.18 1029.24 1029.31 1029.37 1029.40 1029.40
1017.52 1018.13 1018.80 1019.53 1020.28 1021.01 1021.70 1022.32 1022.87 1023.34 1023.75 1024.12 1024.49 1024.85 1025.21 1025.56 1025.89 1026.17 1026.40 1026.57 1026.69 1026.79 1026.89 1027.01 1027.19 1027.43 1027.72 1028.06 1028.40 1028.73 1029.02 1029.25 1029.42 1029.53 1029.59 1029.64 1029.67 1029.70 1029.74 1029.78 1029.82 1029.85 1029.85
1017.52 1018.14 1018.82 1019.56 1020.32 1021.08 1021.80 1022.47 1023.07 1023.60 1024.08 1024.53 1024.96 1025.37 1025.77 1026.15 1026.49 1026.77 1026.99 1027.14 1027.23 1027.30 1027.36 1027.46 1027.60 1027.82 1028.10 1028.44 1028.79 1029.14 1029.45 1029.71 1029.91 1030.04 1030.12 1030.16 1030.18 1030.19 1030.20 1030.23 1030.25 1030.26 1030.26
1017.54 1018.17 1018.85 1019.58 1020.34 1021.10 1021.84 1022.53 1023.17 1023.75 1024.29 1024.80 1025.29 1025.76 1026.21 1026.63 1027.00 1027.30 1027.53 1027.68 1027.77 1027.82 1027.87 1027.93 1028.05 1028.23 1028.48 1028.79 1029.13 1029.47 1029.80 1030.08 1030.30 1030.45 1030.56 1030.61 1030.64 1030.64 1030.65 1030.65 1030.65 1030.65 1030.64
1017.52 1018.15 1018.82 1019.54 1020.28 1021.03 1021.76 1022.46 1023.12 1023.74 1024.32 1024.88 1025.42 1025.94 1026.44 1026.91 1027.32 1027.66 1027.93 1028.11 1028.22 1028.29 1028.33 1028.39 1028.48 1028.62 1028.83 1029.09 1029.40 1029.72 1030.04 1030.33 1030.57 1030.76 1030.90 1030.98 1031.03 1031.06 1031.06 1031.06 1031.05 1031.03 1031.00
1017.40 1018.03 1018.70 1019.39 1020.10 1020.82 1021.53 1022.23 1022.89 1023.53 1024.15 1024.74 1025.32 1025.88 1026.42 1026.93 1027.39 1027.78 1028.10 1028.34 1028.51 1028.61 1028.69 1028.75 1028.83 1028.95 1029.12 1029.33 1029.59 1029.88 1030.18 1030.47 1030.73 1030.95 1031.13 1031.27 1031.36 1031.42 1031.45 1031.46 1031.45 1031.42 1031.38
1017.18 1017.81 1018.45 1019.11 1019.79 1020.48 1021.16 1021.85 1022.51 1023.16 1023.80 1024.41 1025.01 1025.60 1026.16 1026.69 1027.18 1027.62 1028.00 1028.31 1028.55 1028.73 1028.86 1028.97 1029.07 1029.18 1029.32 1029.49 1029.71 1029.95 1030.22 1030.51 1030.78 1031.04 1031.28 1031.47 1031.62 1031.74 1031.81 1031.84 1031.84 1031.82 1031.77
1016.86 1017.48 1018.09 1018.72 1019.36 1020.01 1020.68 1021.35 1022.02 1022.68 1023.32 1023.94 1024.54 1025.12 1025.68 1026.21 1026.72 1027.19 1027.62 1028.01 1028.33 1028.61 1028.83 1029.01 1029.15 1029.29 1029.42 1029.57 1029.75 1029.96 1030.21 1030.48 1030.77 1031.07 1031.35 1031.61 1031.83 1032.01 1032.13 1032.21 1032.24 1032.22 1032.17
1016.47 1017.07 1017.65 1018.24 1018.84 1019.47 1020.13 1020.80 1021.47 1022.14 1022.78 1023.40 1023.98 1024.53 1025.06 1025.57 1026.06 1026.55 1027.01 1027.46 1027.88 1028.26 1028.59 1028.86 1029.09 1029.28 1029.44 1029.59 1029.76 1029.95 1030.17 1030.44 1030.74 1031.06 1031.39 1031.71 1032.00 1032.24 1032.43 1032.55 1032.61 1032.61 1032.56
1016.04 1016.61 1017.15 1017.70 1018.28 1018.89 1019.54 1020.22 1020.91 1021.59 1022.24 1022.84 1023.39 1023.90 1024.37 1024.83 1025.29 1025.76 1026.25 1026.75 1027.25 1027.74 1028.18 1028.58 1028.91 1029.17 1029.39 1029.58 1029.75 1029.94 1030.16 1030.43 1030.74 1031.08 1031.45 1031.81 1032.16 1032.45 1032.69 1032.86 1032.95 1032.98 1032.94
1015.59 1016.12 1016.62 1017.14 1017.69 1018.29 1018.94 1019.64 1020.35 1021.05 1021.70 1022.29 1022.80 1023.26 1023.67 1024.06 1024.47 1024.92 1025.41 1025.95 1026.53 1027.11 1027.68 1028.20 1028.65 1029.02 1029.32 1029.56 1029.77 1029.98 1030.21 1030.48 1030.80 1031.16 1031.55 1031.95 1032.33 1032.66 1032.93 1033.13 1033.25 1033.30 1033.27
1015.12 1015.60 1016.07 1016.55 1017.08 1017.68 1018.34 1019.06 1019.80 1020.52 1021.18 1021.76 1022.24 1022.65 1023.00 1023.33 1023.69 1024.10 1024.59 1025.16 1025.80 1026.48 1027.15 1027.79 1028.36 1028.85 1029.25 1029.57 1029.84 1030.09 1030.35 1030.63 1030.96 1031.33 1031.73 1032.14 1032.53 1032.88 1033.16 1033.38 1033.51 1033.57 1033.55
1014.64 1015.08 1015.50 1015.95 1016.46 1017.06 1017.73 1018.47 1019.24 1019.98 1020.65 1021.23 1021.69 1022.07 1022.37 1022.66 1022.97 1023.36 1023.85 1024.44 1025.13 1025.88 1026.66 1027.41 1028.10 1028.69 1029.20 1029.61 1029.96 1030.26 1030.56 1030.87 1031.21 1031.59 1031.99 1032.39 1032.77 1033.11 1033.39 1033.60 1033.73 1033.79 1033.78
1014.14 1014.53 1014.92 1015.34 1015.84 1016.43 1017.11 1017.87 1018.65 1019.41 1020.09 1020.68 1021.14 1021.50 1021.79 1022.06 1022.35 1022.73 1023.23 1023.84 1024.58 1025.39 1026.24 1027.08 1027.86 1028.56 1029.16 1029.66 1030.09 1030.47 1030.82 1031.16 1031.53 1031.91 1032.30 1032.68 1033.04 1033.35 1033.60 1033.79 1033.91 1033.96 1033.95
1013.64 1013.99 1014.34 1014.74 1015.22 1015.80 1016.49 1017.24 1018.03 1018.80 1019.49 1020.08 1020.56 1020.93 1021.23 1021.50 1021.81 1022.21 1022.72 1023.37 1024.13 1024.99 1025.89 1026.79 1027.64 1028.42 1029.10 1029.69 1030.20 1030.64 1031.06 1031.45 1031.84 1032.24 1032.62 1032.98 1033.31 1033.59 1033.81 1033.96 1034.06 1034.09 1034.08
1013.16 1013.47 1013.79 1014.17 1014.63 1015.20 1015.87 1016.61 1017.39 1018.15 1018.84 1019.44 1019.93 1020.33 1020.66 1020.98 1021.33 1021.76 1022.31 1022.99 1023.78 1024.66 1025.58 1026.51 1027.40 1028.23 1028.97 1029.63 1030.21 1030.73 1031.21 1031.66 1032.09 1032.50 1032.89 1033.23 1033.53 1033.78 1033.97 1034.09 1034.17 1034.19 1034.17
1012.72 1013.00 1013.29 1013.65 1014.10 1014.64 1015.28 1016.00 1016.74 1017.48 1018.16 1018.76 1019.27 1019.70 1020.08 1020.45 1020.86 1021.35 1021.95 1022.65 1023.46 1024.35 1025.28 1026.21 1027.12 1027.96 1028.74 1029.45 1030.10 1030.68 1031.23 1031.74 1032.21 1032.65 1033.05 1033.39 1033.68 1033.90 1034.06 1034.17 1034.23 1034.25 1034.23
1012.33 1012.58 1012.86 1013.21 1013.63 1014.15 1014.75 1015.41 1016.11 1016.80 1017.45 1018.04 1018.57 1019.04 1019.47 1019.91 1020.39 1020.94 1021.58 1022.32 1023.14 1024.02 1024.93 1025.85 1026.74 1027.59 1028.39 1029.13 1029.82 1030.47 1031.08 1031.65 1032.17 1032.65 1033.06 1033.41 1033.69 1033.91 1034.06 1034.16 1034.22 1034.25 1034.25
1012.00 1012.23 1012.50 1012.83 1013.24 1013.72 1014.28 1014.88 1015.52 1016.15 1016.76 1017.33 1017.86 1018.36 1018.85 1019.36 1019.90 1020.52 1021.21 1021.97 1022.79 1023.66 1024.54 1025.43 1026.29 1027.12 1027.92 1028.68 1029.41 1030.11 1030.77 1031.39 1031.96 1032.48 1032.92 1033.29 1033.58 1033.80 1033.96 1034.07 1034.14 1034.19 1034.21
1011.71 1011.92 1012.18 1012.51 1012.90 1013.35 1013.86 1014.41 1014.98 1015.55 1016.12 1016.66 1017.19 1017.71 1018.24 1018.81 1019.42 1020.09 1020.82 1021.60 1022.42 1023.27 1024.12 1024.96 1025.79 1026.60 1027.39 1028.16 1028.91 1029.65 1030.35 1031.02 1031.63 1032.18 1032.65 1033.03 1033.34 1033.57 1033.75 1033.88 1033.98 1034.06 1034.11
1011.43 1011.63 1011.89 1012.22 1012.60 1013.03 1013.50 1014.00 1014.51 1015.03 1015.54 1016.06 1016.59 1017.13 1017.71 1018.32 1018.99 1019.71 1020.47 1021.26 1022.08 1022.90 1023.72 1024.53 1025.32 1026.11 1026.89 1027.66 1028.43 1029.18 1029.92 1030.61 1031.25 1031.82 1032.31 1032.71 1033.02 1033.27 1033.47 1033.62 1033.75 1033.86 1033.94
1011.14 1011.34 1011.60 1011.93 1012.31 1012.73 1013.17 1013.64 1014.11 1014.59 1015.08 1015.58 1016.12 1016.68 1017.29 1017.95 1018.67 1019.42 1020.21 1021.02 1021.83 1022.64 1023.43 1024.21 1024.97 1025.74 1026.50 1027.27 1028.05 1028.81 1029.56 1030.27 1030.92 1031.49 1031.97 1032.37 1032.69 1032.95 1033.16 1033.33 1033.48 1033.61 1033.72
1010.85 1011.04 1011.31 1011.65 1012.04 1012.45 1012.89 1013.34 1013.80 1014.27 1014.75 1015.27 1015.81 1016.41 1017.06 1017.77 1018.52 1019.31 1020.12 1020.94 1021.75 1022.54 1023.32 1024.07 1024.82 1025.57 1026.32 1027.09 1027.86 1028.63 1029.37 1030.07 1030.70 1031.26 1031.72 1032.11 1032.42 1032.67 1032.87 1033.05 1033.22 1033.36 1033.48
1010.57 1010.75 1011.03 1011.39 1011.79 1012.22 1012.67 1013.13 1013.60 1014.08 1014.59 1015.13 1015.72 1016.36 1017.06 1017.81 1018.60 1019.42 1020.25 1021.08 1021.89 1022.67 1023.43 1024.17 1024.91 1025.64 1026.39 1027.15 1027.91 1028.66 1029.38 1030.06 1030.66 1031.18 1031.62 1031.97 1032.25 1032.48 1032.67 1032.84 1033.00 1033.14 1033.25
Thickness
5671 5671 5671 5671 5672 5671 5671 5672 5672 5672 5672 5673 5674 5674 5674 5673 5673 5672 5670 5669 5668 5668 5668 5667 5667 5666 5665 5664 5663 5662 5661 5659 5658 5657 5656 5654 5653 5652 5650 5649 5647 5646 5644
5666 5666 5666 5666 5666 5666 5667 5667 5667 5667 5668 5668 5668 5669 5669 5668 5668 5667 5666 5665 5663 5663 5663 5663 5662 5661 5661 5660 5658 5657 5656 5655 5653 5652 5651 5649 5648 5647 5645 5644 5643 5641 5640
5660 5661 5661 5661 5661 5661 5661 5662 5661 5662 5662 5662 5663 5663 5663 5663 5663 5662 5661 5661 5660 5658 5658 5657 5657 5656 5655 5654 5653 5652 5651 5649 5648 5647 5646 5644 5643 5642 5640 5639 5638 5636 5635
5654 5655 5655 5656 5656 5656 5656 5656 5657 5656 5656 5657 5657 5657 5657 5657 5657 5657 5656 5656 5655 5654 5653 5652 5651 5651 5650 5649 5648 5647 5646 5644 5643 5642 5640 5639 5638 5637 5635 5634 5633 5632 5630
5648 5649 5650 5650 5650 5651 5651 5651 5652 5651 5651 5650 5650 5650 5650 5651 5651 5651 5651 5650 5649 5648 5648 5646 5645 5645 5644 5643 5643 5642 5641 5639 5638 5637 5635 5634 5633 5631 5630 5629 5627 5626 5625
5641 5642 5643 5643 5644 5645 5645 5646 5646 5645 5645 5644 5644 5643 5643 5644 5644 5644 5644 5643 5642 5642 5642 5641 5640 5639 5638 5637 5637 5636 5635 5634 5633 5631 5630 5628 5627 5626 5625 5623 5622 5620 5619
5634 5635 5637 5637 5637 5639 5639 5640 5640 5639 5638 5638 5638 5637 5636 5637 5637 5637 5637 5637 5636 5635 5635 5635 5634 5633 5632 5631 5630 5630 5629 5628 5627 5626 5624 5623 5621 5620 5619 5618 5616 5615 5613
5626 5628 5629 5630 5631 5632 5633 5633 5633 5633 5632 5632 5633 5633 5632 5631 5630 5629 5630 5630 5629 5629 5628 5628 5628 5627 5626 5626 5624 5624 5623 5622 5621 5620 5619 5617 5616 5614 5613 5612 5610 5609 5607
5618 5620 5622 5623 5624 5625 5626 5626 5627 5628 5627 5625 5627 5629 5629 5628 5625 5623 5622 5623 5622 5622 5622 5621 5620 5620 5619 5619 5618 5617 5616 5615 5615 5614 5612 5611 5610 5608 5607 5605 5604 5603 5601
5610 5612 5614 5615 5616 5618 5619 5619 5620 5622 5622 5621 5620 5621 5623 5625 5622 5619 5617 5616 5615 5615 5614 5614 5614 5613 5612 5612 5611 5610 5609 5608 5608 5607 5606 5605 5604 5602 5601 5599 5598 5596 5595
5602 5604 5606 5607 5609 5610 5611 5612 5613 5614 5616 5616 5615 5614 5614 5615 5617 5617 5614 5611 5609 5608 5607 5607 5607 5606 5605 5605 5604 5603 5602 5601 5601 5600 5599 5599 5597 5596 5594 5593 5591 5590 5588
5595 5597 5598 5600 5601 5603 5603 5604 5605 5606 5608 5609 5609 5610 5609 5610 5610 5610 5609 5606 5605 5603 5601 5600 5600 5599 5598 5597 5597 5596 5596 5595 5594 5593 5592 5591 5590 5589 5588 5586 5584 5583 5581
5587 5589 5590 5592 5594 5594 5595 5596 5597 5598 5600 5601 5602 5603 5603 5604 5603 5603 5601 5599 5597 5596 5594 5593 5592 5591 5590 5590 5589 5589 5588 5588 5587 5586 5585 5585 5583 5581 5580 5578 5577 5575 5573
5578 5580 5582 5584 5585 5586 5587 5589 5590 5591 5592 5593 5594 5594 5595 5595 5595 5595 5595 5593 5591 5590 5589 5587 5585 5584 5583 5582 5581 5581 5581 5580 5580 5579 5578 5577 5576 5575 5573 5571 5569 5567 5565
5569 5571 5573 5575 5577 5578 5579 5581 5582 5583 5584 5585 5586 5587 5587 5588 5587 5587 5587 5587 5586 5586 5585 5582 5578 5576 5575 5574 5573 5573 5572 5572 5572 5571 5570 5569 5568 5566 5564 5562 5561 5559 5556
5559 5562 5564 5566 5568 5569 5571 5573 5574 5575 5576 5577 5578 5579 5579 5579 5579 5579 5578 5579 5579 5580 5577 5575 5571 5568 5566 5565 5564 5564 5564 5563 5563 5562 5561 5560 5559 5557 5556 5554 5552 5550 5548
5549 5552 5555 5557 5560 5561 5563 5565 5566 5567 5568 5569 5569 5570 5571 5571 5571 5571 5570 5570 5570 5570 5568 5565 5561 5559 5557 5557 5556 5555 5554 5554 5554 5553 5552 5551 5550 5549 5547 5545 5543 5541 5540
5540 5543 5546 5548 5551 5552 5554 5556 5557 5558 5559 5561 5561 5561 5562 5562 5562 5562 5561 5561 5561 5561 5560 5557 5553 5550 5549 5547 5547 5546 5545 5544 5544 5544 5543 5542 5541 5539 5538 5536 5534 5532 5530
5530 5533 5536 5539 5541 5543 5545 5546 5548 5549 5551 5552 5553 5553 5554 5554 5553 5553 5553 5553 5552 5551 5550 5548 5545 5541 5539 5538 5537 5536 5535 5535 5534 5533 5533 5532 5531 5530 5528 5526 5524 5523 5521
5519 5523 5526 5529 5532 5534 5536 5538 5539 5540 5541 5542 5543 5544 5545 5545 5545 5544 5543 5543 5543 5541 5540 5538 5535 5532 5530 5528 5527 5527 5526 5525 5524 5523 5522 5522 5521 5519 5518 5516 5515 5513 5511
5508 5512 5516 5519 5521 5524 5527 5529 5529 5531 5532 5532 5533 5533 5534 5534 5534 5534 5534 5534 5533 5532 5531 5529 5526 5523 5521 5519 5519 5518 5517 5516 5515 5513 5512 5512 5511 5509 5508 5506 5504 5502 5500
5496 5500 5504 5508 5511 5514 5516 5517 5519 5520 5521 5522 5522 5522 5522 5522 5522 5521 5521 5522 5522 5522 5521 5520 5518 5516 5514 5512 5510 5508 5506 5507 5506 5504 5502 5502 5500 5499 5497 5496 5494 5492 5490
5485 5489 5493 5497 5500 5503 5504 5505 5507 5509 5510 5511 5511 5511 5511 5511 5510 5510 5509 5508 5508 5508 5509 5510 5509 5507 5504 5503 5500 5498 5496 5496 5495 5493 5491 5492 5490 5489 5487 5485 5484 5482 5480
5474 5478 5481 5485 5489 5491 5493 5494 5495 5496 5498 5499 5499 5500 5500 5500 5499 5499 5498 5497 5496 5496 5496 5495 5496 5495 5493 5491 5489 5488 5485 5483 5481 5479 5478 5480 5480 5478 5477 5475 5473 5472 5470
5461 5465 5469 5473 5477 5479 5480 5482 5482 5484 5486 5486 5487 5488 5489 5489 5488 5487 5487 5486 5484 5483 5481 5481 5481 5480 5479 5477 5476 5474 5473 5472 5472 5470 5467 5467 5468 5466 5466 5465 5463 5461 5459
5448 5452 5456 5459 5463 5466 5467 5469 5470 5472 5474 5474 5474 5475 5475 5476 5475 5474 5474 5474 5473 5471 5469 5468 5467 5466 5465 5464 5463 5462 5462 5461 5461 5460 5456 5454 5454 5452 5454 5455 5452 5450 5449